Regional Weather Roundup
Issued by NWS Binghamton, NY

Home | Current Version | Previous Version | Text Only | Print | Product List | Glossary On
Versions: 1 2 3 4 5 6 7 8 9 10 11 12 13 14 15 16 17 18 19 20 21 22 23 24 25 26 27 28 29 30 31 32 33 34 35 36 37 38 39 40 41 42 43 44 45 46 47 48 49 50
000
ASUS41 KBGM 180110
RWRBGM
RWRBGM
BINGHAMTON REGIONAL WEATHER ROUNDUP
NATIONAL WEATHER SERVICE BINGHAMTON NY
800 PM EST WED DEC 17 2014

Note: "fair" indicates few or no clouds below 12,000 feet with no
significant weather and/or obstructions to visibility.

* = Station(s) that does not report precipitation, such as rain,
snow, etc, also no thunder or fog.

!NYZ009-015>018-022>025-036-037-044>046-055>057-062-180200
...CENTRAL NEW YORK...

CITY           SKY/WX    TMP DP  RH WIND       PRES   REMARKS
BINGHAMTON     CLOUDY    32  29  88 W10       29.87R WCI  24
CORTLAND       CLOUDY    32  32 100 W9        29.91R WCI  24
DANSVILLE      CLOUDY    35  27  72 CALM      29.97R
ELMIRA         CLOUDY    36  26  67 W15G25    29.93R WCI  27
ITHACA         CLOUDY    34  28  79 W15G22    29.92R WCI  24
HAMILTON       CLOUDY    36  30  80 NW3       29.87S
MONTICELLO     CLOUDY    34  30  86 W12       29.86S WCI  25
NORWICH        CLOUDY    34  28  80 CALM      29.89R
ONEONTA        CLOUDY    30  30 100 CALM      29.83S
PENN YAN       FLURRIES  35  26  69 W14G25    29.92R WCI  26
ROME           LGT SNOW  33  32  96 W8        29.89F FOG     WCI  26
SIDNEY         FLURRIES  34  34 100 W7        29.88S WCI  28
SYRACUSE       FLURRIES  33  32  96 W18       29.91R WCI  22
$$

!PAZ038>040-043-044-047-048-072-180200
...NORTHEAST PENNSYLVANIA...

CITY           SKY/WX    TMP DP  RH WIND       PRES   REMARKS
HAZLETON       CLOUDY    34  28  80 W13G20    29.93S WCI  25
SCRANTON       CLOUDY    39  25  57 W18G28    29.90S WCI  30
TOWANDA*       CLOUDY    37  25  60 W6        29.95R WCI  33
$$
&&
KEY
WCI = WIND CHILL INDEX
VSB = VISIBILITY
HX  = HEAT INDEX
$$


USA.gov is the U.S. government's official web portal to all federal, state and local government web resources and services.